TimeEDT,TemperatureF,Dew PointF,Humidity,Sea Level PressureIn,VisibilityMPH,Wind Direction,Wind SpeedMPH,Gust SpeedMPH,PrecipitationIn,Events,Conditions,WindDirDegrees,DateUTC
12:52 AM,72.0,71.1,97,29.85,10.0,South,3.5,-,0.01,,Partly Cloudy,170,2013-07-01 04:52:00
1:23 AM,71.6,69.8,94,29.87,10.0,Calm,Calm,-,N/A,,Scattered Clouds,0,2013-07-01 05:23:00
1:33 AM,71.6,69.8,94,29.87,10.0,Calm,Calm,-,N/A,,Mostly Cloudy,0,2013-07-01 05:33:00
1:44 AM,71.6,69.8,94,29.86,10.0,Calm,Calm,-,N/A,,Scattered Clouds,0,2013-07-01 05:44:00
1:52 AM,72.0,70.0,93,29.86,10.0,Calm,Calm,-,N/A,,Partly Cloudy,0,2013-07-01 05:52:00
2:15 AM,71.6,71.6,100,29.87,10.0,SSE,5.8,-,N/A,,Mostly Cloudy,160,2013-07-01 06:15:00
2:39 AM,71.6,71.6,100,29.86,10.0,SSE,4.6,-,N/A,,Mostly Cloudy,160,2013-07-01 06:39:00
2:47 AM,71.6,71.6,100,29.86,10.0,South,5.8,-,N/A,,Scattered Clouds,180,2013-07-01 06:47:00
2:52 AM,71.1,71.1,100,29.86,10.0,South,4.6,-,N/A,,Mostly Cloudy,180,2013-07-01 06:52:00
3:14 AM,71.6,71.6,100,29.86,10.0,South,4.6,-,N/A,,Overcast,180,2013-07-01 07:14:00
3:28 AM,71.6,71.6,100,29.85,10.0,South,6.9,-,N/A,,Overcast,170,2013-07-01 07:28:00
3:52 AM,72.0,71.1,97,29.85,10.0,South,3.5,-,N/A,,Overcast,170,2013-07-01 07:52:00
4:52 AM,72.0,71.1,97,29.85,10.0,SE,4.6,-,N/A,,Overcast,140,2013-07-01 08:52:00
5:00 AM,71.6,71.6,100,29.85,10.0,SE,4.6,-,N/A,,Overcast,140,2013-07-01 09:00:00
5:15 AM,71.6,71.6,100,29.86,10.0,SSE,5.8,-,N/A,,Overcast,160,2013-07-01 09:15:00
5:52 AM,72.0,71.1,97,29.86,4.0,South,8.1,-,0.00,Rain,Heavy Rain,180,2013-07-01 09:52:00
6:05 AM,71.6,71.6,100,29.87,8.0,South,8.1,-,0.00,Rain-Thunderstorm,Light Rain,180,2013-07-01 10:05:00
6:16 AM,71.6,71.6,100,29.88,1.8,SSW,11.5,-,0.00,Rain-Thunderstorm,Heavy Rain,200,2013-07-01 10:16:00
6:23 AM,71.6,71.6,100,29.90,1.0,WSW,10.4,20.7,N/A,Rain,Heavy Rain,250,2013-07-01 10:23:00
6:26 AM,71.6,71.6,100,29.89,0.8,West,8.1,20.7,N/A,Rain,Heavy Rain,260,2013-07-01 10:26:00
6:35 AM,71.6,69.8,94,29.90,2.0,WSW,11.5,-,N/A,Rain,Rain,250,2013-07-01 10:35:00
6:44 AM,71.6,69.8,94,29.89,1.5,WSW,4.6,-,N/A,Rain,Heavy Rain,250,2013-07-01 10:44:00
6:50 AM,69.8,69.8,100,29.89,3.0,SSW,6.9,-,N/A,Rain,Heavy Rain,210,2013-07-01 10:50:00
6:52 AM,70.0,70.0,100,29.88,4.0,SSW,5.8,-,N/A,Rain,Light Rain,210,2013-07-01 10:52:00
7:00 AM,69.8,69.8,100,29.89,10.0,West,4.6,-,0.04,,Overcast,260,2013-07-01 11:00:00
7:17 AM,71.6,69.8,94,29.90,10.0,South,3.5,-,0.13,,Overcast,190,2013-07-01 11:17:00
7:52 AM,71.1,70.0,96,29.91,10.0,SSW,4.6,-,0.28,,Overcast,200,2013-07-01 11:52:00
8:13 AM,71.6,69.8,94,29.92,10.0,SW,4.6,-,0.07,,Mostly Cloudy,220,2013-07-01 12:13:00
8:52 AM,72.0,70.0,93,29.94,10.0,Calm,Calm,-,0.20,,Overcast,0,2013-07-01 12:52:00
9:02 AM,73.4,69.8,88,29.94,10.0,WSW,3.5,-,0.03,,Overcast,240,2013-07-01 13:02:00
9:17 AM,73.4,69.8,88,29.94,8.0,WSW,3.5,-,0.06,Rain,Light Rain,240,2013-07-01 13:17:00
9:36 AM,73.4,69.8,88,29.94,10.0,Calm,Calm,-,0.10,,Overcast,0,2013-07-01 13:36:00
9:52 AM,73.9,71.1,91,29.93,10.0,Calm,Calm,-,0.13,,Overcast,0,2013-07-01 13:52:00
10:52 AM,78.1,70.0,76,29.93,10.0,Calm,Calm,-,0.02,,Mostly Cloudy,0,2013-07-01 14:52:00
11:00 AM,77.0,69.8,78,29.94,10.0,Calm,Calm,-,N/A,,Overcast,0,2013-07-01 15:00:00
11:08 AM,77.0,68.0,74,29.94,10.0,Calm,Calm,-,N/A,,Overcast,0,2013-07-01 15:08:00
11:37 AM,75.2,69.8,83,29.94,10.0,Calm,Calm,-,0.00,,Overcast,0,2013-07-01 15:37:00
11:52 AM,73.0,72.0,96,29.94,6.0,WNW,6.9,-,0.00,Rain,Light Rain,290,2013-07-01 15:52:00
12:16 PM,75.2,71.6,89,29.94,10.0,NNW,4.6,-,0.01,,Overcast,330,2013-07-01 16:16:00
12:52 PM,79.0,71.1,77,29.93,10.0,Calm,Calm,-,0.01,,Partly Cloudy,0,2013-07-01 16:52:00
1:44 PM,80.6,71.6,74,29.94,10.0,SE,5.8,-,N/A,,Overcast,140,2013-07-01 17:44:00
1:52 PM,81.0,72.0,74,29.93,10.0,South,6.9,-,N/A,,Overcast,170,2013-07-01 17:52:00
2:16 PM,80.6,73.4,79,29.93,10.0,SSE,5.8,-,N/A,,Overcast,150,2013-07-01 18:16:00
2:52 PM,82.9,73.0,72,29.92,10.0,Variable,5.8,-,N/A,,Scattered Clouds,0,2013-07-01 18:52:00
3:52 PM,84.9,72.0,65,29.91,10.0,Variable,6.9,-,N/A,,Mostly Cloudy,0,2013-07-01 19:52:00
4:52 PM,79.0,73.0,82,29.93,10.0,SSE,13.8,-,N/A,,Overcast,150,2013-07-01 20:52:00
5:21 PM,77.0,75.2,94,29.94,2.5,SE,12.7,-,0.07,Rain-Thunderstorm,Rain,140,2013-07-01 21:21:00
5:27 PM,75.2,75.2,100,29.94,0.8,South,12.7,-,0.21,Rain-Thunderstorm,Heavy Rain,180,2013-07-01 21:27:00
5:31 PM,75.2,75.2,100,29.95,0.8,South,11.5,-,0.25,Rain,Heavy Rain,180,2013-07-01 21:31:00
5:40 PM,75.2,71.6,89,29.95,1.2,SSE,10.4,27.6,0.32,Rain,Heavy Rain,160,2013-07-01 21:40:00
5:45 PM,75.2,73.4,94,29.95,3.0,SSE,10.4,-,0.32,Rain,Light Rain,160,2013-07-01 21:45:00
5:52 PM,75.0,73.9,96,29.95,10.0,South,6.9,-,0.32,,Overcast,190,2013-07-01 21:52:00
6:05 PM,75.2,73.4,94,29.96,10.0,SSW,6.9,-,0.01,,Overcast,200,2013-07-01 22:05:00
6:12 PM,75.2,73.4,94,29.97,8.0,SSW,6.9,-,0.01,Rain-Thunderstorm,Light Rain,210,2013-07-01 22:12:00
6:20 PM,73.4,73.4,100,29.97,5.0,SW,8.1,-,0.02,Rain-Thunderstorm,Light Rain,220,2013-07-01 22:20:00
6:27 PM,73.4,73.4,100,29.97,6.0,SSW,6.9,-,0.03,Rain,Rain,210,2013-07-01 22:27:00
6:52 PM,73.9,73.0,97,29.97,4.0,SSE,3.5,-,0.08,Rain,Rain,160,2013-07-01 22:52:00
7:04 PM,73.4,73.4,100,29.98,3.0,SE,5.8,-,0.04,Rain-Thunderstorm,Rain,130,2013-07-01 23:04:00
7:06 PM,73.4,73.4,100,29.98,2.5,ESE,6.9,-,0.05,Rain-Thunderstorm,Rain,120,2013-07-01 23:06:00
7:16 PM,73.4,73.4,100,29.98,1.8,South,17.3,26.5,0.22,Rain-Thunderstorm,Heavy Rain,180,2013-07-01 23:16:00
7:23 PM,73.4,73.4,100,29.98,1.0,SSE,17.3,26.5,0.41,Rain,Heavy Rain,160,2013-07-01 23:23:00
7:29 PM,73.4,71.6,94,29.98,3.0,SSE,17.3,-,0.43,Rain,Rain,150,2013-07-01 23:29:00
7:38 PM,73.4,71.6,94,29.97,6.0,SSE,12.7,21.9,0.44,Rain,Light Rain,150,2013-07-01 23:38:00
7:45 PM,73.4,71.6,94,29.97,7.0,SSE,10.4,-,0.45,Rain,Light Rain,160,2013-07-01 23:45:00
7:52 PM,73.9,72.0,93,29.96,7.0,SSE,11.5,-,0.46,Rain,Rain,150,2013-07-01 23:52:00
8:52 PM,73.9,73.0,97,29.97,6.0,South,13.8,-,0.15,Rain,Rain,170,2013-07-02 00:52:00
9:20 PM,73.4,73.4,100,29.99,9.0,South,11.5,17.3,0.03,Rain,Light Rain,190,2013-07-02 01:20:00
9:32 PM,73.4,73.4,100,29.99,10.0,South,16.1,-,0.04,Rain,Light Rain,190,2013-07-02 01:32:00
9:52 PM,72.0,70.0,93,30.01,10.0,SSW,12.7,-,0.06,Rain,Light Rain,200,2013-07-02 01:52:00
10:52 PM,71.1,70.0,96,30.01,10.0,South,8.1,-,0.03,,Partly Cloudy,170,2013-07-02 02:52:00
11:52 PM,71.1,70.0,96,30.02,10.0,South,9.2,-,N/A,,Mostly Cloudy,190,2013-07-02 03:52:00